User: anonymous   Login
Location: Unspecified
(48.7170°N, 0.0000°E)
Time: 04:38:50
(UTC+00:00)
Language:

N. Korean satellite - Orbit

View from above orbital plane
View from above orbital plane
View from above satellite
View from above satellite

Ground track
Ground track

The orbit data is extracted from the following two-line orbital elements,

1 39026U 12072A   19175.49294079  .00000957  00000-0  37101-4 0  9996
2 39026  97.2105 178.4528 0039959  81.1362 279.4399 15.27814666362489
Epoch (UTC): 24 June 2019 11:49:50
Eccentricity: 0.0039959
inclination: 97.2105°
perigee height: 455 km
apogee height: 510 km
right ascension of ascending node: 178.4528°
argument of perigee: 81.1362°
revolutions per day: 15.27814666
mean anomaly at epoch: 279.4399°
orbit number at epoch: 36248

The dashed part of the orbit path shows where the satellite is in the earth's shadow,  

DLR